| time (UTC) | temp F | wind direction | speed knots | gust knots | rain 1hr in | rain 24hr in | rain mn in | humidity % | barometer mb |
| 20260906053006 | 72 | 63 | 2.6 | 5.2 | 0.00 | 0.01 | 0.00 | 95 | 1012.4 |
| 20260906051602 | 72 | 50 | 1.7 | 4.3 | 0.00 | 0.01 | 0.00 | 95 | 1012.5 |
| 20260906050059 | 72 | 46 | 0.9 | 3.5 | 0.00 | 0.01 | 0.00 | 94 | 1012.4 |
| 20260906044556 | 73 | 50 | 1.7 | 4.3 | 0.00 | 0.01 | 0.00 | 94 | 1012.4 |
| 20260906043054 | 73 | 55 | 0.0 | 3.5 | 0.00 | 0.01 | 0.00 | 93 | 1012.3 |
| 20260906041550 | 73 | 65 | 0.9 | 5.2 | 0.00 | 0.01 | 0.00 | 93 | 1012.0 |
| 20260906040049 | 74 | 56 | 1.7 | 7.8 | 0.00 | 0.01 | 0.00 | 93 | 1012.0 |
| 20260906034544 | 74 | 57 | 3.5 | 9.6 | 0.00 | 0.01 | 0.01 | 92 | 1011.9 |
| 20260906033045 | 75 | 79 | 3.5 | 10.4 | 0.00 | 0.01 | 0.01 | 92 | 1012.0 |
| 20260906031542 | 75 | 69 | 4.3 | 8.7 | 0.00 | 0.01 | 0.01 | 91 | 1012.0 |
| 20260906030041 | 75 | 81 | 3.5 | 7.8 | 0.00 | 0.01 | 0.01 | 92 | 1012.0 |
| 20260906024540 | 75 | 73 | 3.5 | 9.6 | 0.00 | 0.01 | 0.01 | 91 | 1011.9 |
| 20260906023045 | 76 | 80 | 5.2 | 13.9 | 0.00 | 0.01 | 0.01 | 91 | 1011.8 |
| 20260906021540 | 75 | 58 | 3.5 | 8.7 | 0.00 | 0.01 | 0.01 | 91 | 1011.9 |
| 20260906020039 | 76 | 76 | 4.3 | 9.6 | 0.00 | 0.01 | 0.01 | 90 | 1011.5 |
| 20260906014544 | 76 | 29 | 4.3 | 9.6 | 0.00 | 0.01 | 0.01 | 88 | 1011.4 |
| 20260906013040 | 75 | 73 | 4.3 | 7.0 | 0.00 | 0.01 | 0.01 | 87 | 1010.9 |
| 20260906011537 | 75 | 51 | 0.0 | 1.7 | 0.00 | 0.01 | 0.01 | 86 | 1010.9 |
| 20260906010037 | 75 | 51 | 0.0 | 2.6 | 0.00 | 0.01 | 0.01 | 85 | 1010.7 |
| 20260906004536 | 75 | 47 | 2.6 | 4.3 | 0.00 | 0.01 | 0.01 | 84 | 1010.7 |
| 20260906003036 | 76 | 49 | 0.0 | 1.7 | 0.00 | 0.01 | 0.01 | 84 | 1010.2 |
| 20260906001535 | 76 | 49 | 0.9 | 2.6 | 0.00 | 0.01 | 0.01 | 83 | 1010.1 |
| 20260906000035 | 77 | 49 | 0.9 | 3.5 | 0.00 | 0.01 | 0.01 | 81 | 1010.1 |
| 20260905234535 | 77 | 11 | 0.9 | 3.5 | 0.00 | 0.01 | 0.01 | 81 | 1010.1 |
| 20260905233037 | 78 | 61 | 2.6 | 6.1 | 0.00 | 0.01 | 0.01 | 80 | 1010.1 |
| 20260905231544 | 79 | 54 | 4.3 | 11.3 | 0.00 | 0.01 | 0.01 | 77 | 1010.3 |
| 20260905230032 | 82 | 35 | 8.7 | 14.8 | 0.00 | 0.01 | 0.01 | 70 | 1010.5 |
| 20260905224531 | 89 | 22 | 2.6 | 5.2 | 0.00 | 0.01 | 0.01 | 66 | 1010.1 |
| 20260905223032 | 90 | 327 | 2.6 | 10.4 | 0.00 | 0.01 | 0.01 | 64 | 1009.7 |
| 20260905221537 | 90 | 327 | 2.6 | 7.8 | 0.00 | 0.01 | 0.01 | 64 | 1009.2 |
| 20260905220029 | 89 | 318 | 2.6 | 7.0 | 0.00 | 0.01 | 0.01 | 66 | 1009.4 |
| 20260905214529 | 88 | 281 | 2.6 | 5.2 | 0.00 | 0.01 | 0.01 | 66 | 1009.4 |
| 20260905213034 | 88 | 281 | 2.6 | 7.0 | 0.00 | 0.01 | 0.01 | 64 | 1009.7 |
| 20260905211532 | 89 | 276 | 3.5 | 7.8 | 0.00 | 0.01 | 0.01 | 61 | 1009.3 |
| 20260905210029 | 90 | 277 | 2.6 | 7.8 | 0.00 | 0.01 | 0.01 | 61 | 1009.8 |
| 20260905204523 | 91 | 319 | 4.3 | 7.0 | 0.00 | 0.01 | 0.01 | 61 | 1009.7 |
| 20260905203022 | 92 | 331 | 2.6 | 8.7 | 0.00 | 0.01 | 0.01 | 58 | 1009.9 |
| 20260905201526 | 92 | 274 | 3.5 | 8.7 | 0.00 | 0.01 | 0.01 | 57 | 1010.1 |
| 20260905200017 | 92 | 282 | 1.7 | 7.8 | 0.00 | 0.01 | 0.01 | 59 | 1010.2 |
| 20260905194515 | 91 | 217 | 2.6 | 7.8 | 0.00 | 0.01 | 0.01 | 57 | 1010.3 |
| 20260905193016 | 92 | 257 | 4.3 | 8.7 | 0.00 | 0.01 | 0.01 | 57 | 1010.3 |
| 20260905191512 | 91 | 272 | 6.1 | 12.2 | 0.00 | 0.01 | 0.01 | 57 | 1010.7 |
| 20260905190009 | 91 | 308 | 2.6 | 7.0 | 0.00 | 0.01 | 0.01 | 59 | 1010.9 |
| 20260905184508 | 90 | 250 | 2.6 | 7.8 | 0.00 | 0.01 | 0.01 | 59 | 1011.0 |
| 20260905183006 | 90 | 194 | 1.7 | 5.2 | 0.00 | 0.01 | 0.01 | 61 | 1011.3 |
| 20260905181502 | 89 | 236 | 1.7 | 7.0 | 0.00 | 0.01 | 0.01 | 60 | 1011.3 |
| 20260905180059 | 88 | 267 | 3.5 | 9.6 | 0.00 | 0.01 | 0.01 | 61 | 1011.4 |
| 20260905174600 | 88 | 247 | 0.9 | 10.4 | 0.00 | 0.01 | 0.01 | 62 | 1011.5 |
| 20260905173058 | 87 | 205 | 2.6 | 6.1 | 0.00 | 0.01 | 0.01 | 61 | 1011.7 |
| 20260905171553 | 86 | 223 | 2.6 | 6.1 | 0.00 | 0.01 | 0.01 | 63 | 1011.9 |
| 20260905170048 | 84 | 167 | 1.7 | 6.1 | 0.00 | 0.01 | 0.01 | 65 | 1012.2 |
| 20260905164544 | 83 | 209 | 0.9 | 2.6 | 0.00 | 0.01 | 0.01 | 69 | 1012.6 |
| 20260905163043 | 81 | 208 | 2.6 | 5.2 | 0.00 | 0.01 | 0.01 | 69 | 1012.6 |
| 20260905161542 | 81 | 179 | 1.7 | 5.2 | 0.00 | 0.01 | 0.01 | 69 | 1012.8 |
| 20260905160042 | 82 | 190 | 2.6 | 7.8 | 0.00 | 0.01 | 0.01 | 67 | 1012.8 |
| 20260905154539 | 82 | 194 | 1.7 | 7.0 | 0.00 | 0.01 | 0.01 | 68 | 1012.7 |
| 20260905153036 | 80 | 216 | 1.7 | 8.7 | 0.00 | 0.01 | 0.01 | 71 | 1012.7 |
| 20260905151532 | 79 | 154 | 1.7 | 5.2 | 0.00 | 0.01 | 0.01 | 74 | 1012.6 |
| 20260905150028 | 78 | 173 | 2.6 | 8.7 | 0.00 | 0.01 | 0.01 | 75 | 1012.5 |
| 20260905144525 | 77 | 179 | 3.5 | 9.6 | 0.00 | 0.01 | 0.01 | 75 | 1012.6 |
| 20260905143028 | 76 | 173 | 1.7 | 5.2 | 0.00 | 0.01 | 0.01 | 76 | 1012.9 |
| 20260905141519 | 75 | 175 | 1.7 | 7.0 | 0.00 | 0.01 | 0.01 | 79 | 1013.0 |
| 20260905140017 | 74 | 162 | 2.6 | 5.2 | 0.00 | 0.01 | 0.01 | 81 | 1013.1 |
| 20260905134518 | 73 | 174 | 1.7 | 4.3 | 0.00 | 0.01 | 0.01 | 83 | 1013.1 |
| 20260905133018 | 73 | 163 | 1.7 | 4.3 | 0.00 | 0.01 | 0.01 | 85 | 1013.2 |
| 20260905131530 | 72 | 167 | 0.0 | 3.5 | 0.00 | 0.01 | 0.01 | 86 | 1013.4 |
| 20260905130014 | 71 | 182 | 0.0 | 1.7 | 0.00 | 0.01 | 0.01 | 87 | 1013.1 |
| 20260905124524 | 70 | 190 | 0.0 | 4.3 | 0.00 | 0.01 | 0.01 | 88 | 1013.0 |
| 20260905123010 | 70 | 146 | 0.0 | 2.6 | 0.00 | 0.01 | 0.01 | 88 | 1013.0 |
| 20260905121520 | 70 | 65 | 0.0 | 1.7 | 0.00 | 0.01 | 0.01 | 89 | 1013.0 |
| 20260905120009 | 70 | 89 | 0.9 | 7.8 | 0.00 | 0.01 | 0.01 | 88 | 1013.2 |
| 20260905114517 | 70 | 102 | 0.0 | 3.5 | 0.01 | 0.01 | 0.01 | 89 | 1012.8 |
| 20260905113005 | 70 | 79 | 0.0 | 10.4 | 0.01 | 0.01 | 0.01 | 89 | 1012.9 |
| 20260905111504 | 70 | 126 | 0.9 | 8.7 | 0.01 | 0.01 | 0.01 | 90 | 1012.7 |
| 20260905110001 | 70 | 110 | 1.7 | 7.8 | 0.01 | 0.01 | 0.01 | 88 | 1012.5 |
| 20260905104558 | 72 | 80 | 3.5 | 13.9 | 0.00 | 0.00 | 0.00 | 85 | 1012.9 |
| 20260905103054 | 72 | 93 | 3.5 | 16.5 | 0.00 | 0.00 | 0.00 | 87 | 1012.8 |
| 20260905101608 | 73 | 89 | 7.0 | 16.5 | 0.00 | 0.00 | 0.00 | 95 | 1012.3 |
| 20260905100048 | 73 | 190 | 0.0 | 0.0 | 0.00 | 0.00 | 0.00 | 95 | 1011.4 |
| 20260905094547 | 73 | 190 | 0.0 | 0.0 | 0.00 | 0.00 | 0.00 | 95 | 1011.4 |
| 20260905093047 | 73 | 190 | 0.0 | 0.0 | 0.00 | 0.00 | 0.00 | 95 | 1011.2 |
| 20260905091548 | 73 | 190 | 0.0 | 0.0 | 0.00 | 0.00 | 0.00 | 95 | 1011.3 |
| 20260905090044 | 73 | 190 | 0.0 | 0.0 | 0.00 | 0.00 | 0.00 | 95 | 1011.3 |
| 20260905084600 | 74 | 190 | 0.0 | 0.0 | 0.00 | 0.00 | 0.00 | 94 | 1011.2 |
| 20260905083043 | 74 | 190 | 0.0 | 0.0 | 0.00 | 0.00 | 0.00 | 94 | 1011.3 |
| 20260905081544 | 74 | 190 | 0.0 | 0.0 | 0.00 | 0.00 | 0.00 | 94 | 1011.2 |
| 20260905080040 | 74 | 190 | 0.0 | 0.0 | 0.00 | 0.00 | 0.00 | 93 | 1011.0 |
| 20260905074538 | 75 | 190 | 0.0 | 0.9 | 0.00 | 0.00 | 0.00 | 93 | 1010.6 |
| 20260905073038 | 75 | 190 | 0.0 | 2.6 | 0.00 | 0.00 | 0.00 | 93 | 1010.3 |
| 20260905071535 | 75 | 190 | 0.0 | 0.0 | 0.00 | 0.00 | 0.00 | 92 | 1010.5 |
| 20260905070033 | 75 | 190 | 0.0 | 0.9 | 0.00 | 0.00 | 0.00 | 92 | 1010.6 |
| 20260905064532 | 75 | 190 | 0.0 | 1.7 | 0.00 | 0.00 | 0.00 | 92 | 1010.7 |
| 20260905063028 | 75 | 190 | 0.0 | 0.9 | 0.00 | 0.00 | 0.00 | 91 | 1011.1 |
| 20260905061525 | 75 | 190 | 0.0 | 2.6 | 0.00 | 0.00 | 0.00 | 92 | 1011.4 |
| 20260905060022 | 75 | 197 | 0.0 | 3.5 | 0.00 | 0.00 | 0.00 | 92 | 1011.4 |
| 20260905054520 | 75 | 119 | 0.0 | 1.7 | 0.00 | 0.00 | 0.00 | 92 | 1011.7 |